When you browse on this site, cookies collect data to enhance your experience and personalize the content and advertising you see.
Visit our Privacy Policy to learn more. By continuing to use the site, you agree to this use of cookies and data.
  • In Spain
  • List of Countries
  • For 7 days
  • Water Temperature
  • Weather Map
  • Weather Widgets
  • user-avatar
    Login

    Hourly Weather Djibouti

    Today, 21 October, Monday

    Time Temperature Precipitation Wind Pressure Humidity
    00:00 +30°C° 0 mm 3 mps 757 mmHg 70%
    01:00 +30°C° 0 mm 3 mps 757 mmHg 71%
    02:00 +30°C° 0 mm 3 mps 756 mmHg 72%
    03:00 +30°C° 0 mm 3 mps 756 mmHg 73%
    04:00 +29°C° 0 mm 3 mps 757 mmHg 73%
    05:00 +29°C° 0 mm 3 mps 757 mmHg 73%
    06:00 +29°C° 0 mm 3 mps 757 mmHg 74%
    07:00 +30°C° 0 mm 4 mps 758 mmHg 70%
    08:00 +32°C° 0 mm 4 mps 758 mmHg 66%
    09:00 +33°C° 0 mm 5 mps 759 mmHg 63%
    10:00 +34°C° 0 mm 5 mps 758 mmHg 57%
    11:00 +35°C° 0 mm 5 mps 758 mmHg 52%
    12:00 +36°C° 0 mm 5 mps 757 mmHg 47%
    13:00 +36°C° 0 mm 5 mps 756 mmHg 45%
    14:00 +36°C° 0 mm 5 mps 756 mmHg 44%
    15:00 +36°C° 0 mm 4 mps 755 mmHg 43%
    16:00 +35°C° 0 mm 4 mps 755 mmHg 46%
    17:00 +34°C° 0 mm 4 mps 755 mmHg 48%
    18:00 +33°C° 0 mm 4 mps 755 mmHg 51%
    19:00 +33°C° 0 mm 3 mps 756 mmHg 52%
    20:00 +33°C° 0 mm 3 mps 756 mmHg 53%
    21:00 +31°C° 0 mm 3 mps 756 mmHg 54%
    22:00 +31°C° 0 mm 3 mps 756 mmHg 55%
    23:00 +31°C° 0 mm 2 mps 756 mmHg 57%

    Tomorrow, 22 October, Tuesday

    Time Temperature Precipitation Wind Pressure Humidity
    00:00 +30°C° 0 mm 2 mps 756 mmHg 59%
    01:00 +30°C° 0 mm 2 mps 756 mmHg 60%
    02:00 +29°C° 0 mm 2 mps 756 mmHg 62%
    03:00 +29°C° 0 mm 2 mps 755 mmHg 63%
    04:00 +29°C° 0 mm 2 mps 756 mmHg 63%
    05:00 +29°C° 0 mm 2 mps 756 mmHg 63%
    06:00 +29°C° 0 mm 2 mps 757 mmHg 62%
    07:00 +30°C° 0 mm 2 mps 757 mmHg 55%
    08:00 +31°C° 0 mm 3 mps 757 mmHg 49%
    09:00 +33°C° 0 mm 3 mps 758 mmHg 42%
    10:00 +35°C° 0 mm 4 mps 757 mmHg 38%
    11:00 +36°C° 0 mm 4 mps 757 mmHg 34%
    12:00 +37°C° 0 mm 5 mps 756 mmHg 30%
    13:00 +37°C° 0 mm 5 mps 756 mmHg 31%
    14:00 +37°C° 0 mm 4 mps 755 mmHg 32%
    15:00 +36°C° 0 mm 4 mps 754 mmHg 32%
    16:00 +35°C° 0 mm 4 mps 755 mmHg 37%
    17:00 +34°C° 0 mm 4 mps 755 mmHg 41%
    18:00 +33°C° 0 mm 3 mps 755 mmHg 46%
    19:00 +33°C° 0 mm 3 mps 755 mmHg 48%
    20:00 +31°C° 0 mm 3 mps 756 mmHg 51%
    21:00 +31°C° 0 mm 2 mps 756 mmHg 53%
    22:00 +31°C° 0 mm 2 mps 756 mmHg 53%
    23:00 +30°C° 0 mm 2 mps 756 mmHg 53%

    Day after tomorrow, 23 October, Wednesday

    Time Temperature Precipitation Wind Pressure Humidity
    00:00 +30°C° 0 mm 1 mps 756 mmHg 53%
    01:00 +30°C° 0 mm 1 mps 756 mmHg 54%
    02:00 +29°C° 0 mm 1 mps 756 mmHg 55%
    03:00 +27°C° 0 mm 0 mps 755 mmHg 56%
    04:00 +26°C° 0 mm 0 mps 756 mmHg 56%
    05:00 +26°C° 0 mm 0 mps 756 mmHg 55%
    06:00 +26°C° 0 mm 0 mps 757 mmHg 55%
    07:00 +29°C° 0 mm 1 mps 757 mmHg 49%
    08:00 +31°C° 0 mm 1 mps 757 mmHg 43%
    09:00 +34°C° 0 mm 2 mps 758 mmHg 38%
    10:00 +35°C° 0 mm 3 mps 757 mmHg 35%
    11:00 +36°C° 0 mm 3 mps 757 mmHg 32%
    12:00 +37°C° 0 mm 4 mps 756 mmHg 29%
    13:00 +37°C° 0 mm 4 mps 755 mmHg 29%
    14:00 +37°C° 0 mm 4 mps 755 mmHg 29%
    15:00 +37°C° 0 mm 4 mps 754 mmHg 30%
    16:00 +36°C° 0 mm 4 mps 754 mmHg 34%
    17:00 +35°C° 0 mm 3 mps 755 mmHg 38%
    18:00 +33°C° 0 mm 3 mps 755 mmHg 42%
    19:00 +32°C° 0 mm 2 mps 755 mmHg 44%
    20:00 +32°C° 0 mm 2 mps 756 mmHg 46%
    21:00 +31°C° 0 mm 1 mps 757 mmHg 48%
    22:00 +31°C° 0 mm 2 mps 756 mmHg 50%
    23:00 +31°C° 0 mm 2 mps 756 mmHg 53%

    24 October, Thursday

    Time Temperature Precipitation Wind Pressure Humidity
    00:00 +30°C° 0 mm 2 mps 756 mmHg 55%
    01:00 +30°C° 0 mm 1 mps 756 mmHg 57%
    02:00 +29°C° 0 mm 1 mps 756 mmHg 59%
    03:00 +29°C° 0 mm 1 mps 756 mmHg 61%
    04:00 +29°C° 0 mm 1 mps 756 mmHg 63%
    05:00 +28°C° 0 mm 1 mps 757 mmHg 65%
    06:00 +28°C° 0 mm 1 mps 757 mmHg 66%
    07:00 +30°C° 0 mm 2 mps 757 mmHg 59%
    08:00 +31°C° 0 mm 2 mps 758 mmHg 51%
    09:00 +33°C° 0 mm 3 mps 758 mmHg 43%
    10:00 +35°C° 0 mm 3 mps 758 mmHg 38%
    11:00 +36°C° 0 mm 4 mps 757 mmHg 33%
    12:00 +37°C° 0 mm 5 mps 756 mmHg 27%
    13:00 +37°C° 0 mm 4 mps 756 mmHg 28%
    14:00 +37°C° 0 mm 4 mps 755 mmHg 28%
    15:00 +36°C° 0 mm 4 mps 755 mmHg 28%
    16:00 +35°C° 0 mm 4 mps 755 mmHg 33%
    17:00 +34°C° 0 mm 4 mps 756 mmHg 37%
    18:00 +33°C° 0 mm 3 mps 756 mmHg 41%
    19:00 +33°C° 0 mm 3 mps 756 mmHg 44%
    20:00 +31°C° 0 mm 2 mps 757 mmHg 46%
    21:00 +31°C° 0 mm 2 mps 757 mmHg 49%
    22:00 +30°C° 0 mm 2 mps 757 mmHg 51%
    23:00 +30°C° 0 mm 2 mps 757 mmHg 53%

    25 October, Friday

    Time Temperature Precipitation Wind Pressure Humidity
    00:00 +30°C° 0 mm 2 mps 757 mmHg 56%
    01:00 +29°C° 0 mm 2 mps 756 mmHg 57%
    02:00 +29°C° 0 mm 2 mps 756 mmHg 59%
    03:00 +29°C° 0 mm 1 mps 756 mmHg 61%
    04:00 +28°C° 0 mm 2 mps 756 mmHg 62%
    05:00 +28°C° 0 mm 2 mps 757 mmHg 63%
    06:00 +28°C° 0 mm 2 mps 757 mmHg 64%
    07:00 +29°C° 0 mm 2 mps 757 mmHg 57%
    08:00 +30°C° 0 mm 2 mps 758 mmHg 51%
    09:00 +33°C° 0 mm 3 mps 758 mmHg 45%
    10:00 +34°C° 0 mm 3 mps 757 mmHg 39%
    11:00 +35°C° 0 mm 3 mps 757 mmHg 34%
    12:00 +37°C° 0 mm 4 mps 756 mmHg 29%
    13:00 +36°C° 0 mm 4 mps 755 mmHg 29%
    14:00 +36°C° 0 mm 4 mps 755 mmHg 28%
    15:00 +36°C° 0 mm 4 mps 754 mmHg 28%
    16:00 +35°C° 0 mm 4 mps 755 mmHg 32%
    17:00 +34°C° 0 mm 3 mps 755 mmHg 35%
    18:00 +33°C° 0 mm 3 mps 755 mmHg 38%
    19:00 +31°C° 0 mm 3 mps 756 mmHg 42%
    20:00 +31°C° 0 mm 3 mps 756 mmHg 46%
    21:00 +30°C° 0 mm 2 mps 756 mmHg 50%
    22:00 +30°C° 0 mm 2 mps 756 mmHg 52%
    23:00 +30°C° 0 mm 2 mps 756 mmHg 54%

    26 October, Saturday

    Time Temperature Precipitation Wind Pressure Humidity
    00:00 +29°C° 0 mm 2 mps 756 mmHg 56%
    01:00 +29°C° 0 mm 2 mps 756 mmHg 58%
    02:00 +29°C° 0 mm 2 mps 756 mmHg 60%
    03:00 +29°C° 0 mm 2 mps 755 mmHg 62%
    04:00 +28°C° 0 mm 2 mps 756 mmHg 63%
    05:00 +28°C° 0 mm 2 mps 756 mmHg 64%
    06:00 +28°C° 0 mm 2 mps 757 mmHg 65%
    07:00 +29°C° 0 mm 2 mps 757 mmHg 60%
    08:00 +30°C° 0 mm 2 mps 757 mmHg 55%
    09:00 +31°C° 0 mm 2 mps 758 mmHg 49%
    10:00 +34°C° 0 mm 2 mps 757 mmHg 45%
    11:00 +35°C° 0 mm 3 mps 757 mmHg 42%
    12:00 +36°C° 0 mm 3 mps 756 mmHg 38%
    13:00 +36°C° 0 mm 4 mps 755 mmHg 39%
    14:00 +36°C° 0 mm 4 mps 755 mmHg 41%
    15:00 +35°C° 0 mm 5 mps 754 mmHg 43%
    16:00 +34°C° 0 mm 4 mps 754 mmHg 45%
    17:00 +34°C° 0 mm 4 mps 754 mmHg 48%
    18:00 +33°C° 0 mm 3 mps 755 mmHg 50%
    19:00 +31°C° 0 mm 3 mps 755 mmHg 52%
    20:00 +31°C° 0 mm 2 mps 755 mmHg 55%
    21:00 +31°C° 0 mm 2 mps 756 mmHg 57%
    22:00 +30°C° 0 mm 2 mps 756 mmHg 59%
    23:00 +30°C° 0 mm 2 mps 756 mmHg 61%

    27 October, Sunday

    Time Temperature Precipitation Wind Pressure Humidity
    00:00 +30°C° 0 mm 1 mps 755 mmHg 63%
    01:00 +29°C° 0 mm 1 mps 755 mmHg 65%
    02:00 +29°C° 0 mm 1 mps 755 mmHg 67%
    03:00 +29°C° 0 mm 1 mps 755 mmHg 70%
    04:00 +28°C° 0 mm 1 mps 755 mmHg 71%
    05:00 +28°C° 0 mm 1 mps 756 mmHg 73%
    06:00 +28°C° 0 mm 1 mps 756 mmHg 74%
    07:00 +29°C° 0 mm 1 mps 757 mmHg 66%
    08:00 +30°C° 0 mm 1 mps 757 mmHg 58%
    09:00 +32°C° 0 mm 1 mps 757 mmHg 49%
    10:00 +34°C° 0 mm 2 mps 757 mmHg 43%
    11:00 +36°C° 0 mm 3 mps 756 mmHg 36%
    12:00 +37°C° 0 mm 4 mps 756 mmHg 30%
    13:00 +37°C° 0 mm 4 mps 755 mmHg 29%
    14:00 +37°C° 0 mm 4 mps 755 mmHg 29%
    15:00 +36°C° 0 mm 4 mps 754 mmHg 29%
    16:00 +36°C° 0 mm 4 mps 754 mmHg 31%
    17:00 +35°C° 0 mm 3 mps 755 mmHg 34%
    18:00 +34°C° 0 mm 3 mps 755 mmHg 37%
    19:00 +32°C° 0 mm 2 mps 755 mmHg 41%
    20:00 +31°C° 0 mm 2 mps 756 mmHg 45%
    21:00 +31°C° 0 mm 2 mps 756 mmHg 49%
    22:00 +30°C° 0 mm 2 mps 756 mmHg 52%
    23:00 +30°C° 0 mm 1 mps 756 mmHg 55%
    Show more